SCP
0 0 0 0 0 0 0 0 0 0 0 0 0 0 0 0 0 0 0 0 0 0 0 0 0 0 0 0 0 0 0 0 0 0 0 0 0 -0 -0 -0 0 0 0 0
0 0 0 0 0 0 0 0 0 0 0 0 0 0 0 0 0 0 0 0 0 0 0 0 0 0 0 0 0 0 0 0 0 0 0 0 0 0 -0 -0 -0 -0 0 0
0 0 0 0 0 0 0 0 0 0 0 0 0 0 0 0 0 0 0 0 0 0 0 0 0 0 0 0 0 0 0 0 0 0 0 0 0 0 -0 -0 -0 -0 -0 -0
0 0 0 0 0 0 0 0 0 0 0 0 0 0 0 0 0 0 0 0 0 0 0 0 0 0 0 0 0 0 0 0 0 0 0 0 0 0 0 0 -0 -0 -0 -0
0 0 0 0 0 0 0 0 0 0 0 0 0 -0 -0 -0 0 0 0 0 0 0 0 0 0 0 0 0 0 0 0 0 0 0 0 0 0 0 0 0 0 0 0 0
0 0 0 0 0 0 0 0 0 0 0 0 -0 -0 -0 -0 0 0 0 0 0 0 0 0 0 0 0 0 0 0 0 0 0 0 0 0 0 0 0 0 0 0 0 0
0 0 0 0 0 0 0 0 0 0 0 -0 -0 -0 -0 0 0 0 0 0 0 0 0 0 0 0 0 0 0 0 0 0 0 0 0 0 0 0 0 0 0 0 0 0
0 0 0 0 0 0 0 0 0 0 -0 -0 -0 -0 -0 0 0 0 0 0 0 0 0 0 0 -0 -0 -0 0 0 0 0 0 0 0 0 0 0 0 0 0 0 0 0
0 0 0 0 0 0 0 0 0 0 -0 -0 0 0 0 0 0 0 0 0 0 0 0 0 0 0 -0 -0 -0 0 0 0 0 0 0 0 0 0 0 0 0 0 0 0
0 0 0 0 0 -0 -0 -0 0 0 0 0 0 0 0 0 0 0 0 0 0 0 0 0 0 0 -0 -0 -0 -0 0 0 0 0 0 0 0 0 0 0 0 0 0 0
0 0 0 0 0 0 0 0 0 0 0 0 0 0 0 0 0 0 0 0 0 0 0 0 0 0 -0 -0 -0 -0 -0 0 0 0 0 0 0 0 0 0 0 0 0 0
0 0 0 0 0 0 0 0 0 0 0 0 0 0 0 0 0 0 0 0 0 0 0 0 0 0 -0 -0 -0 -0 -0 -0 0 0 0 0 0 0 0 0 0 0 0 0
0 0 0 0 0 0 0 0 0 0 0 0 0 0 0 0 0 0 0 0 0 0 0 0 0 0 -0 -0 -0 -0 -0 -0 0 0 0 0 0 0 0 0 0 0 0 0
0 0 0 0 0 0 0 0 0 0 0 0 0 0 0 0 0 0 0 0 0 0 0 0 0 0 -0 -0 -0 -0 -0 -0 0 0 0 0 0 0 0 0 0 0 0 0
-0 0 0 0 0 0 0 0 0 0 0 0 0 0 0 0 0 0 0 0 0 0 0 0 0 0 0 -0 -0 -0 -0 -0 0 0 0 0 0 0 0 0 0 0 0 0
0 0 0 0 0 0 0 0 0 0 0 0 0 0 0 0 0 0 0 0 0 0 0 0 0 0 0 0 0 0 -0 0 0 0 0 0 0 0 0 0 0 0 0 0
0 0 0 0 0 0 0 0 0 0 0 0 0 0 0 0 0 0 0 0 0 0 0 0 0 0 0 0 0 0 0 0 0 0 0 0 0 0 0 0 0 0 0 0
0 0 0 0 0 0 0 0 0 0 0 0 0 0 0 0 0 0 0 0 0 0 0 0 0 0 0 0 0 0 0 0 0 0 0 0 0 0 0 0 0 0 0 0
0 0 0 0 0 0 0 0 0 0 0 0 0 0 0 0 0 0 0 0 0 0 0 0 0 0 0 0 0 0 0 0 0 0 0 0 0 0 0 0 0 0 0 0
0 0 0 0 0 0 0 0 0 0 0 0 0 0 0 0 0 0 0 0 0 0 0 0 0 0 0 0 0 0 0 0 0 0 0 0 0 0 0 0 0 0 0 0
0 0 0 0 0 0 0 0 0 0 0 0 0 0 0 0 0 0 0 0 0 0 0 0 0 0 0 0 0 0 0 0 0 0 0 0 0 0 0 0 0 0 0 0
0 0 0 0 0 0 0 0 0 0 0 0 0 0 0 0 0 0 0 0 0 0 0 0 0 0 0 0 0 0 0 0 0 0 0 0 0 0 0 0 0 0 0 0
0 0 0 0 0 0 -0 -0 -0 0 0 0 0 0 0 0 0 0 0 0 0 0 0 0 0 0 0 0 0 0 0 0 0 0 0 0 0 0 0 0 0 0 0 0
0 0 0 0 0 -0 -0 -0 -0 0 0 0 0 0 0 0 0 0 0 0 0 0 0 0 0 0 0 0 0 0 0 0 0 0 0 0 0 0 0 0 0 0 0 0
0 0 0 0 0 0 0 0 0 0 0 0 0 0 0 0 0 0 0 0 0 0 0 0 0 0 0 0 0 0 0 0 0 0 0 0 0 0 0 0 0 0 0 0
0 0 0 0 0 0 0 0 0 0 0 0 0 0 0 0 0 0 0 0 0 0 0 0 0 0 0 0 0 0 0 0 0 0 0 0 0 0 0 0 0 0 0 0
0 0 0 0 0 0 0 0 0 0 0 0 0 0 0 0 0 0 0 0 0 0 0 0 0 0 0 0 0 0 0 0 0 0 0 0 0 0 0 0 0 0 0 0
Wind_Speed
6 7 6 8 11 11 8 6 5 5 6 3 5 6 8 9 10 13 13 14 13 11 9 9 8 7 6 6 6 6 6 6 6 6 5 4 3 1 1 2 2 3 4 4
3 5 7 7 9 5 6 6 8 9 6 5 4 6 9 10 11 12 11 12 12 11 11 11 11 10 9 8 7 6 7 7 7 6 6 5 4 3 1 1 1 2 3 3
4 5 4 4 6 6 8 8 5 5 3 6 7 8 6 7 9 10 10 11 11 10 10 10 11 11 11 10 7 6 8 8 8 8 8 7 6 4 3 2 1 1 2 3
2 2 2 3 5 11 11 10 9 6 6 7 8 6 1 5 7 10 11 12 12 11 11 10 10 11 12 12 8 7 8 8 9 9 9 8 7 6 4 3 3 2 3 4
3 3 5 3 4 3 1 5 8 6 8 10 10 8 3 5 6 7 8 8 9 9 9 9 10 11 12 12 10 7 7 8 10 11 10 10 9 7 5 4 4 3 4 5
3 3 5 2 10 12 2 3 5 6 8 10 10 8 6 10 12 12 11 9 9 9 9 9 10 10 10 11 11 10 10 9 9 11 12 12 11 8 6 5 5 5 5 5
2 4 1 6 12 10 2 4 6 7 8 9 6 7 11 14 14 12 12 12 11 10 9 9 9 8 9 10 11 11 12 11 9 10 12 12 11 8 7 6 6 6 6 5
2 2 2 8 7 5 2 5 7 8 9 10 12 14 15 15 14 13 14 13 11 9 9 8 8 7 8 10 10 11 11 11 9 9 11 11 11 10 9 9 8 7 6 5
2 1 1 1 1 4 5 7 8 9 12 13 15 16 17 16 15 15 14 13 11 10 10 9 8 7 8 9 9 10 11 11 10 9 10 10 12 12 10 9 8 7 7 6
3 2 2 3 4 5 7 10 12 13 15 15 17 18 18 17 15 14 14 13 11 10 10 10 9 8 8 9 8 8 10 10 10 8 9 10 10 11 10 10 10 9 8 7
3 2 5 5 6 8 10 12 14 16 16 17 17 18 18 15 14 13 12 11 10 9 10 12 10 9 9 8 7 7 8 9 9 8 8 9 10 11 13 12 13 11 10 9
2 4 5 9 10 12 13 15 16 17 17 16 14 15 15 14 12 11 11 10 10 10 11 12 10 10 9 8 7 6 6 7 7 8 7 7 8 7 10 10 16 16 14 12
6 7 8 11 13 14 14 16 16 15 14 14 12 11 12 11 10 10 10 11 11 12 12 11 10 9 9 8 7 7 7 6 6 8 7 6 8 9 7 5 10 15 16 17
8 8 9 11 12 13 13 14 12 12 11 12 11 11 11 11 11 11 12 12 12 11 11 10 10 10 9 8 8 8 7 7 7 7 6 6 8 9 10 10 9 6 8 14
9 8 10 11 11 11 11 11 12 12 12 13 11 12 13 13 13 13 12 12 11 11 11 11 11 11 10 9 9 9 7 6 5 6 6 6 7 9 9 10 10 7 4 4
9 9 10 11 12 13 12 13 14 13 13 14 13 14 15 15 15 14 13 12 13 13 12 12 12 11 10 10 10 8 7 11 8 6 7 6 7 9 9 10 10 9 9 8
8 9 10 12 13 14 13 13 13 14 14 15 15 16 16 16 15 15 14 14 14 15 14 13 13 11 11 10 10 7 7 7 9 7 6 6 7 10 10 11 11 10 10 11
9 10 11 13 15 16 16 15 15 16 16 16 16 15 15 16 17 17 17 16 16 16 15 14 13 12 11 10 8 7 6 6 5 5 6 6 7 9 10 11 12 12 9 10
11 12 13 14 14 14 14 15 16 15 15 14 15 16 16 17 18 18 18 17 17 17 15 12 15 13 10 11 12 6 7 7 6 5 6 6 7 8 10 11 11 11 11 11
12 13 14 14 14 14 15 15 15 14 13 13 16 17 18 19 19 19 18 16 14 14 13 13 11 10 9 10 13 6 7 7 6 5 5 5 6 9 10 11 12 12 11 11
13 14 15 15 14 14 15 15 14 14 14 15 17 19 20 20 20 18 16 15 14 13 12 12 9 8 7 8 10 6 7 7 6 6 5 5 6 9 10 11 12 12 12 11
12 13 14 14 15 15 14 13 13 14 16 18 20 21 21 21 20 17 15 13 13 13 10 7 7 9 9 9 6 6 6 6 5 5 5 5 7 8 10 11 11 11 11 11
12 11 11 13 14 15 15 13 14 15 18 20 22 22 21 19 16 14 14 11 9 11 8 7 9 12 12 7 5 5 6 6 5 5 5 5 7 8 10 11 11 11 11 10
10 11 12 12 13 13 15 16 17 17 19 20 20 21 20 17 14 11 10 13 13 12 8 8 11 11 9 5 4 5 5 5 4 4 4 4 6 7 9 10 10 10 11 12
10 10 11 13 13 12 14 16 18 19 19 17 20 21 17 13 13 12 11 11 11 9 6 7 9 9 5 4 4 4 4 3 3 2 3 4 5 6 8 8 9 9 10 10
10 10 10 11 11 11 12 14 15 15 16 17 17 17 16 14 13 11 8 8 7 6 5 4 4 4 3 3 4 4 3 2 2 2 2 3 4 5 6 7 10 9 9 10
9 9 9 10 10 11 12 14 15 16 16 17 19 18 17 15 12 11 9 6 4 4 4 3 3 3 4 3 3 3 2 1 1 1 1 2 3 3 5 7 7 7 7 8
Wind_Direction
223 247 270 290 297 296 287 255 199 139 111 32 13 37 36 32 29 27 22 17 12 3 354 344 330 311 288 260 227 199 186 188 195 192 185 186 193 223 298 338 357 7 26 30
279 271 288 300 320 329 16 30 97 99 68 348 358 41 41 31 26 21 11 4 359 356 353 345 337 326 309 284 251 210 196 199 194 183 184 188 194 202 228 286 332 25 34 44
262 290 339 351 347 75 66 30 65 87 41 349 4 23 38 27 21 10 355 349 347 345 342 340 333 329 320 299 271 227 208 201 190 185 188 192 192 194 207 220 204 104 73 81
211 348 251 198 87 106 98 60 47 60 27 6 343 317 75 46 13 350 343 340 336 332 330 330 333 334 331 324 297 251 224 207 194 189 191 188 186 194 202 198 184 159 134 116
154 209 249 149 51 1 185 82 27 21 4 349 329 311 263 16 351 324 317 316 314 313 312 319 327 331 337 334 323 291 256 227 204 192 189 186 189 194 193 184 183 172 154 143
165 204 241 300 336 324 113 106 19 359 341 337 344 338 306 326 327 319 314 310 308 311 314 318 322 326 336 335 334 323 299 271 229 198 189 190 192 187 180 178 182 167 158 156
247 249 240 341 322 336 353 321 322 320 316 315 303 268 283 298 300 296 296 295 296 300 303 303 309 320 325 326 326 318 313 299 260 214 197 191 187 178 173 173 170 168 162 160
348 294 314 353 13 43 297 282 289 295 292 289 283 283 286 288 287 288 290 288 287 286 286 288 294 304 311 311 312 317 317 309 285 233 206 192 181 179 175 170 171 171 164 158
73 101 175 319 169 226 246 272 279 279 283 283 283 282 283 283 282 283 282 280 277 274 278 280 280 281 290 295 304 317 320 314 305 264 217 189 181 180 175 175 176 177 173 170
98 107 254 265 258 259 259 263 272 275 277 278 277 278 280 280 280 278 277 274 272 272 273 276 274 272 267 277 290 305 314 313 310 285 230 199 184 181 178 181 182 181 180 177
80 335 321 294 277 274 279 281 282 283 282 281 282 283 284 285 285 282 280 277 272 269 271 273 272 270 270 271 278 290 306 312 313 298 246 206 192 188 184 189 187 182 185 179
276 260 253 267 271 280 287 290 293 295 295 293 291 291 294 295 293 291 289 286 282 276 273 274 272 269 270 268 266 272 291 306 309 304 264 216 192 185 193 185 187 185 182 178
234 247 247 265 278 284 288 291 295 296 297 300 300 298 298 296 294 292 291 290 286 283 280 277 275 271 270 266 259 257 266 285 299 295 272 221 188 177 171 172 183 184 184 182
259 271 280 279 283 288 291 294 296 297 298 297 295 296 297 295 294 293 291 288 287 287 285 280 275 273 271 267 260 255 256 273 290 288 278 234 196 184 177 171 168 173 193 191
284 281 275 284 291 295 294 296 300 299 296 293 288 290 291 291 289 287 286 286 285 283 281 279 278 277 276 271 264 257 253 259 276 290 280 244 203 183 177 174 170 159 137 159
290 294 294 296 298 298 298 298 297 291 290 292 292 289 287 285 285 285 285 285 283 281 278 275 273 273 274 271 267 260 252 260 271 285 282 246 202 182 175 170 165 164 165 157
309 305 301 302 301 300 297 295 293 293 294 294 294 294 294 293 292 290 288 283 279 277 275 271 271 269 268 267 263 256 249 254 265 276 270 245 204 184 176 171 170 170 171 169
289 287 289 293 298 302 303 301 299 298 297 298 302 304 302 300 296 295 293 292 287 281 275 271 270 268 263 266 261 251 247 243 241 255 262 243 205 185 176 173 172 169 162 165
291 289 291 293 295 298 300 302 302 301 302 306 307 304 301 299 297 296 295 293 289 285 280 270 267 267 264 265 269 252 246 243 241 246 254 237 205 185 177 173 172 169 164 162
294 295 298 301 303 304 305 305 306 307 307 307 306 306 304 302 301 299 296 290 282 278 278 273 268 263 259 263 267 249 239 240 240 244 246 227 194 183 178 175 172 169 167 169
304 306 309 312 311 309 309 310 311 310 309 310 310 308 306 304 302 300 296 293 287 280 275 270 264 260 254 255 260 245 235 235 236 238 235 213 190 181 177 173 171 171 170 172
309 312 315 316 316 316 316 313 311 312 313 314 312 310 308 306 304 300 290 284 284 281 276 268 260 255 255 259 251 238 233 233 232 231 226 205 187 177 174 170 168 171 172 173
314 315 315 317 318 316 316 316 316 316 315 315 313 310 308 305 303 299 298 292 289 283 275 264 258 258 263 263 246 235 234 231 230 230 219 198 181 172 169 167 167 168 170 174
318 318 317 318 320 319 319 321 321 319 316 313 310 309 309 308 304 296 287 289 288 283 275 265 262 262 262 248 234 232 231 226 229 228 207 183 170 165 162 163 164 165 170 173
318 318 321 325 327 324 320 320 321 319 317 316 313 313 313 309 307 306 301 298 296 290 279 268 260 259 251 230 225 226 225 216 215 208 181 160 153 157 158 159 162 166 170 175
319 323 322 319 318 317 320 322 320 318 318 317 317 318 317 315 313 311 308 304 300 294 285 274 258 248 235 229 229 224 218 206 204 192 162 146 140 148 156 159 161 165 169 176
322 323 322 323 323 322 323 322 319 318 318 318 319 319 319 321 324 325 322 316 311 302 289 278 261 237 221 218 217 208 190 171 158 127 122 130 134 144 157 160 160 159 164 172